Regional Weather Roundup
Issued by NWS Cleveland, OH

Home | Current Version | Previous Version | Graphics & Text | Print | Product List | Glossary On
Versions: 1 2 3 4 5 6 7 8 9 10 11 12 13 14 15 16 17 18 19 20 21 22 23 24 25 26 27 28 29 30 31 32 33 34 35 36 37 38 39 40 41 42 43 44 45 46 47 48 49 50
000
ASUS41 KCLE 162012
RWRCLE
OHIO REGIONAL WEATHER ROUNDUP
NATIONAL WEATHER SERVICE WILMINGTON, OH
300 PM EST MON JAN 16 2017

NOTE: "FAIR" INDICATES FEW OR NO CLOUDS BELOW 12,000 FEET WITH NO
SIGNIFICANT WEATHER AND/OR OBSTRUCTIONS TO VISIBILITY.

OHZ001>008-015>018-024>027-034-035-043-044-162100-
   NORTHWEST OHIO

CITY           SKY/WX    TMP DP  RH WIND       PRES   REMARKS
DEFIANCE       CLOUDY    35  32  88 E7        30.20F FOG     WCI  29
FINDLAY        CLOUDY    38  34  85 E8        30.19F FOG
TOLEDO EXPRESS CLOUDY    36  28  73 E6        30.20F
TOLEDO EXEC    CLOUDY    35  30  82 E7        30.22F HAZE    WCI  29
LIMA           CLOUDY    38  37  97 E7        30.17F FOG
$$

OHZ009>014-019>023-028>033-038-089-162100-
   NORTHEAST OHIO

CITY           SKY/WX    TMP DP  RH WIND       PRES   REMARKS
CLE-HOPKINS    CLOUDY    40  27  59 SE5       30.28F
CLE-LAKEFRONT  CLOUDY    35  26  69 NE6       30.25F
CUY CO. ARPT   CLOUDY    41  27  56 SE6       30.25F
LORAIN-ELYRIA  LGT RAIN  36  31  82 S3        30.26F
ASHTABULA      CLOUDY    38  18  44 CALM      30.27F
AKRON-CANTON   LGT RAIN  39  32  76 S3        30.24F
WOOSTER        MIX PCPN  36  32  85 E6        30.24F FOG
MANSFIELD      CLOUDY    37  35  92 E7        30.22F
YOUNGSTOWN     CLOUDY    37  16  42 CALM      30.25F
$$

OHZ042-051>053-060>062-070>072-077>081-162100-
  SOUTHWEST OHIO

CITY           SKY/WX    TMP DP  RH WIND       PRES   REMARKS
CINC-COVINGTON CLOUDY    50  47  89 SE7       30.16F FOG
CINC-LUNKEN    CLOUDY    49  47  93 SW5       30.18F
HAMILTON       CLOUDY    50  46  86 E6        30.18F
DAYTON         CLOUDY    46  44  93 SE5       30.17F FOG
WRIGHT-PAT AFB CLOUDY    49  46  90 SE3       30.17F
DAYTON GENERAL CLOUDY    49  45  86 S3        30.16F
WILMINGTON     FAIR      49  47  93 E5        30.17F
$$

OHZ036-037-039>041-045>050-054>059-063>069-073>076-082>088-162100-
  CENTRAL AND SOUTHEAST OHIO

CITY           SKY/WX    TMP DP  RH WIND       PRES   REMARKS
COLUMBUS       CLOUDY    47  40  76 S5        30.21F
OSU AIRPORT    PTSUNNY   45  41  86 SE7       30.20F
BOLTON FIELD   CLOUDY    45  43  93 S3        30.21F
RICKENBACK AFB LGT RAIN  45  43  92 CALM      30.20F
NEWARK         CLOUDY    46  40  79 E6        30.20F
MARION         CLOUDY    40  37  89 E5        30.21F FOG
LANCASTER      LGT RAIN  48  41  76 SE5       30.21F
ZANESVILLE     CLOUDY    45  40  82 NE3       30.22F
NEW PHILLY     LGT RAIN  39  34  82 CALM      30.25F
$$




USA.gov is the U.S. government's official web portal to all federal, state and local government web resources and services.